Kezdőlap
METAR-TAF:

METAR-TAF

Repülőterek :

Buffalo Municipal Airport

Buffalo, Minnesota, Amerikai Egyesült Államok

földrajzi szélesség: 45-09-32N, földrajzi hosszúság: 093-50-35W, magasság: 295 m

Jelenlegi meteorológiai megfigyelések

A jelentés 29 perccel ezelõtt készült, 17:15 UTC
Dél-délnyugati szél 6 kt
Hőmérséklet 1°C
Páratartalom 75%
Légköri nyomás 1017 hPa
Látótávolság: 16.1 km
Derült ég

METAR: KCFE 081715Z AUTO 20006KT 10SM CLR 01/M03 A3004 RMK AO2

Idő: 11:44 (17:44 UTC)


TAF: hiányzik

Meteorológiai megfigyelések és előrejelzések több, mint 4000 repülőtéren (METAR és TAF jelentéseket).

A térképen piros és sárga pontok jelzik az elérhető meteorológiai állomásokat.

Mozgassa az egeret a pont fölött, hogy megjelenjen az állomás neve.

Azután kattintson az időjárási megfigyelések és előrejelzések megtekintéséhez.

A térkép megváltoztatása: kattintson a fekete keresztel jelölt zöld gombra ráközelítéshez, a vonallal jelölt zöld gombra távolításhoz, vagy a zöld nyilakra a szomszédos térképek eléréséhez.


METAR-TAF: